GW6392 Weather Reports


time (UTC)temp
C
wind
direction
speed
KPH
gust
KPH
rain 1hr
cm
rain 24hr
cm
rain mn
cm
humidity
%
barometer
mb
20260508035511 6 311 3.2 6.4 0.00 0.00 0.00 55 1012.5
20260508035012 7 311 4.8 6.4 0.00 0.00 0.00 54 1012.3
20260508034550 7 311 4.8 6.4 0.00 0.00 0.00 53 1011.9
20260508034012 7 311 3.2 6.4 0.00 0.00 0.00 52 1012.2
20260508033517 7 311 3.2 6.4 0.00 0.00 0.00 52 1012.0
20260508033038 8 311 4.8 6.4 0.00 0.00 0.00 51 1012.3
20260508032513 8 311 4.8 6.4 0.00 0.00 0.00 50 1012.0
20260508032011 8 298 3.2 4.8 0.00 0.00 0.00 51 1012.0
20260508031536 8 298 3.2 6.4 0.00 0.00 0.00 51 1011.8
20260508031012 8 298 3.2 6.4 0.00 0.00 0.00 48 1012.0
20260508030513 9 298 4.8 6.4 0.00 0.00 0.00 47 1011.8
20260508030044 10 298 3.2 6.4 0.00 0.00 0.00 44 1011.8
20260508025511 11 298 4.8 6.4 0.00 0.00 0.00 42 1011.6
20260508025013 12 346 3.2 6.4 0.00 0.00 0.00 40 1011.5
20260508024543 12 346 3.2 6.4 0.00 0.00 0.00 40 1011.5
20260508024012 13 346 4.8 8.0 0.00 0.00 0.00 38 1011.5
20260508023513 13 346 4.8 9.7 0.00 0.00 0.00 36 1011.4
20260508023035 15 340 6.4 9.7 0.00 0.00 0.00 35 1011.0
20260508022511 15 339 4.8 6.4 0.00 0.00 0.00 35 1011.2
20260508022014 16 339 4.8 6.4 0.00 0.00 0.00 35 1011.2
20260508021537 16 339 3.2 8.0 0.00 0.00 0.00 33 1011.1
20260508021012 17 339 6.4 12.9 0.00 0.00 0.00 31 1011.1
20260508020513 17 337 8.0 14.5 0.00 0.00 0.00 30 1011.0
20260508020031 18 349 8.0 17.7 0.00 0.00 0.00 30 1011.0
20260508015512 18 344 12.9 19.3 0.00 0.00 0.00 28 1011.0
20260508015012 18 344 12.9 22.5 0.00 0.00 0.00 28 1010.9
20260508014537 19 346 14.5 22.5 0.00 0.00 0.00 27 1010.9
20260508014012 19 5 16.1 24.1 0.00 0.00 0.00 27 1010.8
20260508013513 19 351 19.3 25.7 0.00 0.00 0.00 27 1010.8
20260508013023 19 352 19.3 27.4 0.00 0.00 0.00 27 1010.7
20260508012510 20 5 19.3 27.4 0.00 0.00 0.00 27 1010.7
20260508012012 20 352 19.3 29.0 0.00 0.00 0.00 28 1010.7
20260508011542 20 352 22.5 29.0 0.00 0.00 0.00 27 1010.7
20260508011013 20 17 16.1 29.0 0.00 0.00 0.00 28 1010.8
20260508010513 20 5 16.1 29.0 0.00 0.00 0.00 28 1010.8
20260508010010 20 345 22.5 32.2 0.00 0.00 0.00 27 1010.6
20260508005512 20 332 22.5 32.2 0.00 0.00 0.00 28 1010.5
20260508005014 20 352 17.7 29.0 0.00 0.00 0.00 28 1010.7
20260508004545 20 352 19.3 29.0 0.00 0.00 0.00 28 1010.6
20260508004014 20 11 20.9 29.0 0.00 0.00 0.00 28 1010.8
20260508003514 20 348 17.7 29.0 0.00 0.00 0.00 29 1010.8
20260508003041 20 352 22.5 29.0 0.00 0.00 0.00 27 1010.7
20260508002510 20 325 17.7 29.0 0.00 0.00 0.00 29 1010.8
20260508002013 20 341 17.7 33.8 0.00 0.00 0.00 29 1010.9
20260508001540 20 346 25.7 33.8 0.00 0.00 0.00 28 1010.6
20260508001011 20 5 24.1 30.6 0.00 0.00 0.00 28 1010.6
20260508000514 20 331 19.3 32.2 0.00 0.00 0.00 28 1010.6
20260508000039 21 5 22.5 32.2 0.00 0.00 0.00 28 1010.7
20260507235508 21 11 22.5 32.2 0.00 0.00 0.00 27 1010.6
20260507235010 21 351 22.5 49.9 0.00 0.00 0.00 28 1010.3
20260507234538 21 5 25.7 49.9 0.00 0.00 0.00 27 1010.4
20260507234013 20 351 25.7 33.8 0.00 0.00 0.00 28 1010.4
20260507233520 20 345 20.9 33.8 0.00 0.00 0.00 28 1010.6
20260507233037 20 324 25.7 33.8 0.00 0.00 0.00 27 1010.2
20260507232514 20 334 24.1 35.4 0.00 0.00 0.00 28 1010.5
20260507232008 20 331 25.7 38.6 0.00 0.00 0.00 28 1010.5
20260507231546 20 340 29.0 38.6 0.00 0.00 0.00 27 1010.5
20260507231014 21 344 20.9 32.2 0.00 0.00 0.00 26 1010.5
20260507230514 21 339 17.7 40.2 0.00 0.00 0.00 27 1010.6
20260507230055 21 344 27.4 41.8 0.00 0.00 0.00 28 1010.6
20260507225507 20 360 27.4 37.0 0.00 0.00 0.00 27 1010.4
20260507225011 20 352 24.1 38.6 0.00 0.00 0.00 27 1010.6
20260507224539 20 309 24.1 38.6 0.00 0.00 0.00 27 1010.7
20260507224010 21 329 25.7 37.0 0.00 0.00 0.00 28 1010.6
20260507223516 21 319 25.7 41.8 0.00 0.00 0.00 28 1010.7
20260507223040 21 340 29.0 40.2 0.00 0.00 0.00 27 1010.6
20260507222512 20 350 25.7 37.0 0.00 0.00 0.00 26 1010.6
20260507222011 21 338 25.7 37.0 0.00 0.00 0.00 27 1010.8
20260507221551 21 325 22.5 38.6 0.00 0.00 0.00 28 1010.7
20260507221014 21 10 29.0 37.0 0.00 0.00 0.00 27 1010.8
20260507220513 21 348 27.4 37.0 0.00 0.00 0.00 28 1010.7
20260507220037 21 348 24.1 37.0 0.00 0.00 0.00 28 1010.7
20260507215514 20 339 29.0 35.4 0.00 0.00 0.00 27 1010.7
20260507215016 20 334 24.1 38.6 0.00 0.00 0.00 27 1010.8
20260507214540 20 350 24.1 38.6 0.00 0.00 0.00 27 1010.8
20260507214007 20 328 16.1 27.4 0.00 0.00 0.00 29 1011.0
20260507213513 20 333 16.1 29.0 0.00 0.00 0.00 31 1010.9
20260507213037 20 282 17.7 33.8 0.00 0.00 0.00 30 1010.9
20260507212514 20 306 20.9 33.8 0.00 0.00 0.00 30 1011.1
20260507212016 20 295 17.7 29.0 0.00 0.00 0.00 30 1011.3
20260507211542 20 302 19.3 33.8 0.00 0.00 0.00 33 1011.3
20260507211011 19 322 19.3 33.8 0.00 0.00 0.00 35 1011.5
20260507210515 18 300 22.5 45.1 0.00 0.00 0.00 33 1011.4
20260507210038 18 316 33.8 49.9 0.00 0.00 0.00 33 1011.5
20260507205514 19 323 35.4 49.9 0.00 0.00 0.00 33 1011.5
20260507205018 20 341 24.1 32.2 0.00 0.00 0.00 30 1011.5
20260507204537 20 324 24.1 32.2 0.00 0.00 0.00 31 1011.5
20260507204014 20 5 20.9 33.8 0.00 0.00 0.00 30 1011.3
20260507203514 20 336 24.1 33.8 0.00 0.00 0.00 32 1011.4
20260507203047 19 338 24.1 33.8 0.00 0.00 0.00 32 1011.4
20260507202511 20 338 25.7 37.0 0.00 0.00 0.00 31 1011.5
20260507202013 19 321 29.0 38.6 0.00 0.00 0.00 31 1011.3
20260507201541 19 14 25.7 38.6 0.00 0.00 0.00 30 1011.3
20260507201015 19 344 25.7 41.8 0.00 0.00 0.00 30 1011.3
20260507200512 20 329 25.7 41.8 0.00 0.00 0.00 30 1011.0
20260507200048 19 343 20.9 32.2 0.00 0.00 0.00 30 1011.1
20260507195514 19 346 24.1 33.8 0.00 0.00 0.00 30 1011.2
20260507195015 20 330 24.1 38.6 0.00 0.00 0.00 30 1011.3
20260507194542 20 331 25.7 33.8 0.00 0.00 0.00 30 1011.3
20260507194011 20 319 25.7 32.2 0.00 0.00 0.00 30 1011.4
20260507193515 20 317 24.1 32.2 0.00 0.00 0.00 29 1011.3
20260507193055 20 331 19.3 37.0 0.00 0.00 0.00 28 1011.3
20260507192511 20 323 24.1 37.0 0.00 0.00 0.00 29 1011.2
20260507192018 21 312 24.1 35.4 0.00 0.00 0.00 31 1011.2
20260507191543 20 334 22.5 45.1 0.00 0.00 0.00 30 1011.0
20260507191014 20 334 27.4 45.1 0.00 0.00 0.00 31 1011.2
20260507190517 20 321 19.3 40.2 0.00 0.00 0.00 32 1011.1
20260507190048 20 27 25.7 40.2 0.00 0.00 0.00 29 1011.4
20260507185519 20 345 27.4 38.6 0.00 0.00 0.00 31 1011.5
20260507185016 20 360 22.5 33.8 0.00 0.00 0.00 33 1011.4
20260507184523 19 325 27.4 33.8 0.00 0.00 0.00 33 1011.4
20260507184016 20 336 20.9 35.4 0.00 0.00 0.00 35 1011.3
20260507183514 19 322 22.5 40.2 0.00 0.00 0.00 34 1011.4
20260507183051 20 342 20.9 40.2 0.00 0.00 0.00 33 1011.5
20260507182512 20 336 19.3 33.8 0.00 0.00 0.00 36 1011.6
20260507182017 19 9 24.1 33.8 0.00 0.00 0.00 34 1011.6
20260507181550 20 319 16.1 30.6 0.00 0.00 0.00 36 1011.8
20260507181016 19 310 22.5 37.0 0.00 0.00 0.00 35 1011.9
20260507180517 19 329 22.5 33.8 0.00 0.00 0.00 34 1011.8
20260507180052 20 336 20.9 35.4 0.00 0.00 0.00 35 1011.9
20260507175516 19 321 25.7 35.4 0.00 0.00 0.00 36 1011.9
20260507175012 19 327 25.7 35.4 0.00 0.00 0.00 37 1012.0
20260507174604 18 14 25.7 35.4 0.00 0.00 0.00 38 1012.2
20260507174015 18 352 20.9 33.8 0.00 0.00 0.00 39 1012.1
20260507173515 18 16 20.9 35.4 0.00 0.00 0.00 38 1012.2
20260507173100 18 344 24.1 40.2 0.00 0.00 0.00 38 1012.2
20260507172517 18 342 25.7 40.2 0.00 0.00 0.00 40 1012.0
20260507172014 18 360 24.1 35.4 0.00 0.00 0.00 38 1012.3
20260507171529 18 338 22.5 35.4 0.00 0.00 0.00 38 1012.4
20260507171018 18 348 24.1 35.4 0.00 0.00 0.00 39 1012.3
20260507170517 18 349 22.5 45.1 0.00 0.00 0.00 39 1012.4
20260507170055 18 352 22.5 45.1 0.00 0.00 0.00 39 1012.4
20260507165514 18 352 20.9 33.8 0.00 0.00 0.00 39 1012.4
20260507165015 18 340 19.3 33.8 0.00 0.00 0.00 40 1012.3
20260507164602 18 317 20.9 30.6 0.00 0.00 0.00 40 1012.3
20260507164010 18 352 17.7 29.0 0.00 0.00 0.00 39 1012.4
20260507163510 17 344 17.7 32.2 0.00 0.00 0.00 40 1012.4
20260507163047 17 333 19.3 32.2 0.00 0.00 0.00 40 1012.3
20260507162517 17 323 20.9 32.2 0.00 0.00 0.00 39 1012.4
20260507162019 17 335 9.7 25.7 0.00 0.00 0.00 40 1012.2
20260507161546 17 352 14.5 20.9 0.00 0.00 0.00 41 1012.2
20260507161010 16 262 9.7 16.1 0.00 0.00 0.00 39 1012.3
20260507160516 16 31 1.6 9.7 0.00 0.00 0.00 39 1012.4
20260507160052 16 279 3.2 8.0 0.00 0.00 0.00 40 1012.4
20260507155517 15 238 1.6 6.4 0.00 0.00 0.00 39 1012.4
20260507155015 15 292 3.2 6.4 0.00 0.00 0.00 41 1012.7
20260507154552 15 352 3.2 6.4 0.00 0.00 0.00 39 1012.8
20260507154016 15 225 1.6 6.4 0.00 0.00 0.00 39 1012.6
20260507153517 14 241 1.6 6.4 0.00 0.00 0.00 39 1012.7
20260507153057 14 328 1.6 4.8 0.00 0.00 0.00 40 1012.7
20260507152514 13 328 0.0 8.0 0.00 0.00 0.00 39 1012.7
20260507152017 13 328 1.6 8.0 0.00 0.00 0.00 37 1012.8
20260507151539 13 348 1.6 8.0 0.00 0.00 0.00 37 1012.6
20260507151018 12 304 1.6 11.3 0.00 0.00 0.00 35 1012.7
20260507150515 12 315 4.8 8.0 0.00 0.00 0.00 37 1012.7
20260507150028 12 280 1.6 8.0 0.00 0.00 0.00 36 1012.3
20260507145517 11 290 1.6 8.0 0.00 0.00 0.00 35 1012.4
20260507145018 11 267 1.6 4.8 0.00 0.00 0.00 38 1012.6
20260507144556 11 302 0.0 3.2 0.00 0.00 0.00 37 1012.5
20260507144017 10 302 0.0 8.0 0.00 0.00 0.00 38 1012.4
20260507143525 10 302 0.0 11.3 0.00 0.00 0.00 38 1012.4
20260507143103 9 283 4.8 12.9 0.00 0.00 0.00 40 1012.3
20260507142519 9 263 6.4 12.9 0.00 0.00 0.00 42 1012.2
20260507142014 8 246 8.0 11.3 0.00 0.00 0.00 43 1012.3
20260507141557 8 276 6.4 11.3 0.00 0.00 0.00 46 1012.3
20260507141015 7 263 8.0 11.3 0.00 0.00 0.00 45 1012.3
20260507140517 7 280 6.4 11.3 0.00 0.00 0.00 48 1012.6
20260507140049 7 264 3.2 11.3 0.00 0.00 0.00 51 1012.7
20260507135515 7 304 4.8 11.3 0.00 0.00 0.00 50 1012.7
20260507135015 7 323 4.8 8.0 0.00 0.00 0.00 52 1012.7
20260507134558 6 256 3.2 8.0 0.00 0.00 0.00 54 1012.4
20260507134017 6 246 3.2 6.4 0.00 0.00 0.00 53 1012.5
20260507133518 6 267 4.8 9.7 0.00 0.00 0.00 53 1012.1
20260507133059 6 271 4.8 8.0 0.00 0.00 0.00 55 1012.3
20260507132517 6 352 1.6 3.2 0.00 0.00 0.00 56 1012.0
20260507132019 6 352 0.0 4.8 0.00 0.00 0.00 55 1012.3
20260507131607 5 352 3.2 4.8 0.00 0.00 0.00 55 1012.4
20260507131016 5 352 3.2 6.4 0.00 0.00 0.00 55 1012.5
20260507130516 5 352 4.8 6.4 0.00 0.00 0.00 55 1012.4
20260507130054 5 352 4.8 8.0 0.00 0.00 0.00 55 1012.3
20260507125520 5 352 3.2 8.0 0.00 0.00 0.00 54 1012.2
20260507125017 5 352 6.4 8.0 0.00 0.00 0.00 55 1012.2
20260507124556 4 352 4.8 6.4 0.00 0.00 0.00 55 1012.2
20260507124016 5 352 4.8 6.4 0.00 0.00 0.00 54 1012.1
20260507123514 5 352 1.6 4.8 0.00 0.00 0.00 52 1012.0
20260507123109 5 352 3.2 4.8 0.00 0.00 0.00 53 1012.0
20260507122516 5 352 3.2 4.8 0.00 0.00 0.00 53 1011.8
20260507122020 5 352 1.6 3.2 0.00 0.00 0.00 53 1012.0
20260507121624 5 352 1.6 4.8 0.00 0.00 0.00 51 1011.6
20260507121010 5 352 3.2 8.0 0.00 0.00 0.00 50 1011.6
20260507120519 5 352 3.2 8.0 0.00 0.00 0.00 50 1011.9
20260507120104 6 352 4.8 8.0 0.00 0.00 0.00 49 1011.9
20260507115522 6 352 1.6 4.8 0.00 0.00 0.00 47 1011.3
20260507115019 6 352 1.6 6.4 0.00 0.00 0.00 47 1011.4
20260507114605 5 352 3.2 8.0 0.00 0.00 0.00 49 1011.5
20260507114015 5 352 4.8 8.0 0.00 0.00 0.00 50 1011.7
20260507113514 5 316 3.2 9.7 0.00 0.00 0.00 51 1011.2
20260507113109 5 298 4.8 9.7 0.00 0.00 0.00 51 1011.3
20260507112508 5 296 6.4 8.0 0.00 0.00 0.00 49 1011.5
20260507112021 5 352 4.8 8.0 0.00 0.00 0.00 49 1011.4
20260507111610 5 5 4.8 9.7 0.00 0.00 0.00 48 1011.2
20260507111010 5 352 4.8 9.7 0.00 0.00 0.00 48 1011.1
20260507110518 5 9 4.8 8.0 0.00 0.00 0.00 48 1011.2
20260507110045 5 15 4.8 12.9 0.00 0.00 0.00 48 1011.0
20260507105514 5 25 6.4 12.9 0.00 0.00 0.00 48 1010.9
20260507105015 5 26 6.4 12.9 0.00 0.00 0.00 49 1011.1
20260507104608 5 26 4.8 8.0 0.00 0.00 0.00 52 1010.9
20260507104010 5 26 4.8 8.0 0.00 0.00 0.00 52 1011.0
20260507103517 5 26 4.8 9.7 0.00 0.00 0.00 51 1010.8
20260507103058 5 351 6.4 14.5 0.00 0.00 0.00 52 1010.8
20260507102519 4 340 6.4 14.5 0.00 0.00 0.00 53 1010.9
20260507102014 5 25 9.7 17.7 0.00 0.00 0.00 52 1010.9
20260507101614 5 5 11.3 14.5 0.00 0.00 0.00 50 1010.7
20260507101021 5 352 8.0 12.9 0.00 0.00 0.00 53 1010.6
20260507100519 4 321 6.4 12.9 0.00 0.00 0.00 53 1010.3
20260507100106 4 285 6.4 12.9 0.00 0.00 0.00 54 1010.3
20260507095519 3 301 8.0 16.1 0.00 0.00 0.00 56 1010.2
20260507095016 3 271 11.3 16.1 0.00 0.00 0.00 59 1010.2
20260507094623 3 261 8.0 12.9 0.00 0.00 0.00 62 1010.1
20260507094018 2 254 4.8 9.7 0.00 0.00 0.00 63 1010.1
20260507093518 2 274 3.2 6.4 0.00 0.00 0.00 66 1009.9
20260507093111 2 274 3.2 6.4 0.00 0.00 0.00 65 1010.0
20260507092517 2 274 4.8 6.4 0.00 0.00 0.00 65 1010.1
20260507092020 1 274 3.2 9.7 0.00 0.00 0.00 68 1010.2
20260507091642 1 269 4.8 9.7 0.00 0.00 0.00 67 1010.1
20260507091018 2 247 1.6 8.0 0.00 0.00 0.00 67 1010.0
20260507090517 2 246 4.8 8.0 0.00 0.00 0.00 63 1009.9
20260507090112 2 342 1.6 6.4 0.00 0.00 0.00 60 1009.9
20260507085517 2 342 3.2 6.4 0.00 0.00 0.00 63 1010.2
20260507085017 3 342 1.6 6.4 0.00 0.00 0.00 60 1010.2
20260507084609 3 236 4.8 8.0 0.00 0.00 0.00 58 1009.9
20260507084016 3 236 4.8 8.0 0.00 0.00 0.00 56 1009.9
20260507083518 4 40 1.6 8.0 0.00 0.00 0.00 51 1010.1
20260507083108 5 40 1.6 8.0 0.00 0.00 0.00 50 1009.9
20260507082509 4 28 4.8 6.4 0.00 0.00 0.00 51 1010.0
20260507082018 4 28 1.6 4.8 0.00 0.00 0.00 56 1010.1
20260507081540 4 28 1.6 4.8 0.00 0.00 0.00 59 1010.2
20260507081019 5 28 3.2 4.8 0.00 0.00 0.00 55 1010.1
20260507080514 6 28 0.0 3.2 0.00 0.00 0.00 49 1010.2
20260507080057 6 28 0.0 6.4 0.00 0.00 0.00 47 1010.2
20260507075518 6 28 1.6 9.7 0.00 0.00 0.00 48 1010.5
20260507075020 6 28 4.8 11.3 0.00 0.00 0.00 47 1010.5
20260507074610 6 40 6.4 16.1 0.00 0.00 0.00 46 1010.3
20260507074019 6 32 6.4 17.7 0.00 0.00 0.00 47 1010.4
20260507073517 6 51 9.7 19.3 0.00 0.00 0.00 48 1010.3
20260507073029 6 43 11.3 20.9 0.00 0.00 0.00 52 1010.8
20260507072519 6 14 12.9 20.9 0.00 0.00 0.00 55 1010.3
20260507072012 6 34 1.6 4.8 0.00 0.00 0.00 55 1009.9
20260507071618 7 105 0.0 0.0 0.00 0.00 0.00 54 1009.6
20260507071020 7 105 0.0 3.2 0.00 0.00 0.00 54 1009.4
20260507070518 7 105 0.0 4.8 0.00 0.00 0.00 50 1009.6
20260507070110 7 105 1.6 6.4 0.00 0.00 0.00 51 1009.7
20260507065519 8 105 4.8 6.4 0.00 0.00 0.00 50 1009.4
20260507065016 8 92 4.8 11.3 0.00 0.00 0.00 49 1009.8
20260507064611 8 97 4.8 11.3 0.00 0.00 0.00 46 1009.5
20260507064016 8 81 4.8 12.9 0.00 0.00 0.00 48 1009.6
20260507063515 9 91 6.4 12.9 0.00 0.00 0.00 47 1009.6
20260507063058 9 70 8.0 16.1 0.00 0.00 0.00 49 1009.7
20260507062515 10 103 9.7 16.1 0.00 0.00 0.00 48 1009.5
20260507062201 10 87 9.7 20.9 0.00 0.00 0.00 50 1009.6
20260507061537 10 71 12.9 20.9 0.00 0.00 0.00 50 1009.7
20260507061012 10 55 12.9 19.3 0.00 0.00 0.00 53 1009.6
20260507060511 10 44 4.8 11.3 0.00 0.00 0.00 55 1009.8
20260507060027 10 352 1.6 8.0 0.00 0.00 0.00 50 1009.6
20260507055513 10 352 4.8 8.0 0.00 0.00 0.00 50 1009.7
20260507055011 10 50 4.8 8.0 0.00 0.00 0.00 44 1009.6
20260507054538 11 63 4.8 12.9 0.00 0.00 0.00 40 1009.8
20260507054013 11 65 6.4 16.1 0.00 0.00 0.00 38 1009.7
20260507053512 11 64 11.3 19.3 0.00 0.00 0.00 39 1009.8
20260507053048 11 60 12.9 19.3 0.00 0.00 0.00 38 1009.8
20260507052513 11 73 6.4 17.7 0.00 0.00 0.00 40 1009.7
20260507052010 11 66 14.5 24.1 0.00 0.00 0.00 39 1009.7
20260507051541 12 53 16.1 25.7 0.00 0.00 0.00 35 1009.9
20260507051010 12 78 17.7 22.5 0.00 0.00 0.00 31 1009.6
20260507050512 12 82 14.5 22.5 0.00 0.00 0.00 30 1009.6
20260507050041 12 88 16.1 22.5 0.00 0.00 0.00 30 1009.7
20260507045506 12 94 11.3 22.5 0.00 0.00 0.00 30 1009.6
20260507045013 12 123 12.9 22.5 0.00 0.00 0.00 30 1009.9
20260507044537 12 57 12.9 17.7 0.00 0.00 0.00 32 1009.9
20260507044012 12 315 0.0 12.9 0.00 0.00 0.00 32 1009.9
20260507043514 12 315 4.8 12.9 0.00 0.00 0.00 32 1010.1
20260507043038 13 303 3.2 17.7 0.00 0.00 0.00 31 1009.6
20260507042511 13 84 6.4 20.9 0.00 0.00 0.00 29 1009.0
20260507042015 13 101 14.5 20.9 0.00 0.00 0.00 28 1008.6
20260507041538 13 113 8.0 17.7 0.00 0.00 0.00 30 1008.7
20260507041010 13 111 4.8 22.5 0.00 0.00 0.00 30 1008.5
20260507040514 13 133 12.9 22.5 0.00 0.00 0.00 30 1008.5
20260507040045 13 113 11.3 16.1 0.00 0.00 0.00 31 1008.6